EW3163 Weather Reports


Display with metric or nautical units.
time (UTC)temp
F
wind
direction
speed
MPH
gust
MPH
rain 1hr
in
rain 24hr
in
rain mn
in
humidity
%
barometer
mb
20260510033040 35 343 0.0 0.0 0.00 0.00 0.00 96 1023.8
20260510031544 35 343 0.0 0.0 0.00 0.00 0.00 96 1023.8
20260510030038 36 343 0.0 0.0 0.00 0.00 0.00 96 1023.7
20260510024538 37 343 0.0 0.0 0.00 0.00 0.00 96 1023.5
20260510023032 37 343 0.0 0.0 0.00 0.00 0.00 96 1023.5
20260510021531 37 343 0.0 0.0 0.00 0.00 0.00 96 1023.6
20260510020030 37 343 0.0 0.0 0.00 0.00 0.00 96 1023.6
20260510014530 37 343 0.0 0.0 0.00 0.00 0.00 96 1023.6
20260510013025 38 343 0.0 0.0 0.00 0.00 0.00 96 1023.7
20260510011524 38 343 0.0 0.0 0.00 0.00 0.00 96 1023.8
20260510010022 39 343 0.0 0.0 0.00 0.00 0.00 96 1023.7
20260510004519 39 343 0.0 0.0 0.00 0.00 0.00 96 1023.8
20260510003017 39 345 0.0 0.0 0.00 0.00 0.00 96 1024.0
20260510001515 40 345 0.0 0.0 0.00 0.00 0.00 96 1024.0
20260510000013 40 344 0.0 0.0 0.00 0.00 0.00 96 1024.0
20260509234518 41 324 0.0 0.0 0.00 0.00 0.00 96 1024.1
20260509233016 41 323 0.0 0.0 0.00 0.00 0.00 96 1024.1
20260509231505 42 317 0.0 0.0 0.00 0.00 0.00 96 1024.1
20260509230004 42 315 0.0 0.0 0.00 0.00 0.00 96 1024.1
20260509224502 42 314 0.0 0.0 0.00 0.00 0.00 96 1024.1
20260509223001 42 311 0.0 0.0 0.00 0.00 0.00 96 1024.0
20260509221600 43 345 0.0 0.0 0.00 0.00 0.00 96 1024.1
20260509220057 43 5 0.0 0.0 0.00 0.00 0.00 96 1024.2
20260509214556 43 6 0.0 0.0 0.00 0.00 0.00 96 1024.1
20260509213056 44 6 0.0 0.0 0.00 0.00 0.00 96 1024.1
20260509211601 44 353 0.0 0.0 0.00 0.00 0.00 96 1024.2
20260509210107 44 19 0.0 4.0 0.00 0.00 0.00 96 1024.0
20260509204553 44 346 0.0 0.0 0.00 0.00 0.00 96 1023.9
20260509203051 44 13 1.0 4.0 0.00 0.00 0.00 96 1024.0
20260509201558 44 4 0.0 1.0 0.00 0.00 0.00 96 1023.9
20260509200058 44 13 0.0 2.0 0.00 0.00 0.00 96 1023.8
20260509194550 44 4 0.0 2.0 0.00 0.00 0.00 96 1023.8
20260509193053 43 18 0.0 3.0 0.00 0.00 0.00 96 1023.7
20260509191547 44 4 0.0 2.0 0.00 0.00 0.00 96 1023.7
20260509190052 44 30 0.0 3.0 0.00 0.00 0.00 96 1023.6
20260509184546 44 11 0.0 4.0 0.00 0.00 0.00 96 1023.7
20260509183043 44 16 1.0 7.0 0.00 0.00 0.00 96 1023.6
20260509181541 44 341 1.0 9.0 0.00 0.00 0.00 96 1023.4
20260509180038 44 4 0.0 7.0 0.00 0.00 0.00 96 1023.3
20260509174537 44 319 1.0 8.0 0.00 0.00 0.00 96 1023.2
20260509173036 44 359 3.0 10.0 0.00 0.00 0.00 96 1023.0
20260509171539 43 8 3.0 9.0 0.00 0.00 0.00 96 1023.1
20260509170034 44 342 3.0 7.0 0.00 0.00 0.00 96 1023.2
20260509164538 44 20 4.0 14.0 0.00 0.00 0.00 96 1023.1
20260509163051 44 22 3.0 10.0 0.00 0.00 0.00 96 1022.9
20260509161532 44 20 3.0 12.0 0.00 0.00 0.00 96 1023.0
20260509160025 44 359 4.0 10.0 0.00 0.00 0.00 96 1022.9
20260509154532 44 38 5.0 11.0 0.00 0.00 0.00 96 1022.8
20260509153025 43 345 4.0 13.0 0.00 0.00 0.00 96 1022.8
20260509151517 43 314 4.0 9.0 0.00 0.00 0.00 96 1022.7
20260509150016 44 342 1.0 8.0 0.00 0.00 0.00 96 1022.8
20260509144516 44 311 2.0 11.0 0.00 0.00 0.00 96 1022.7
20260509143010 44 312 3.0 11.0 0.00 0.00 0.00 96 1022.6
20260509141516 44 335 2.0 10.0 0.00 0.00 0.00 96 1022.4
20260509140006 45 308 0.0 16.0 0.00 0.00 0.00 96 1022.4
20260509134504 45 350 1.0 8.0 0.00 0.00 0.00 96 1022.4
20260509133107 45 342 4.0 10.0 0.00 0.00 0.00 96 1022.2
20260509131557 45 334 3.0 11.0 0.00 0.00 0.00 96 1022.2
20260509130059 45 34 2.0 11.0 0.00 0.00 0.00 96 1022.2
20260509124600 45 324 2.0 7.0 0.00 0.00 0.00 96 1022.1
20260509123103 45 323 1.0 8.0 0.00 0.00 0.00 96 1022.1
20260509121559 45 274 2.0 9.0 0.00 0.00 0.00 96 1021.8
20260509120049 46 316 2.0 13.0 0.00 0.00 0.00 96 1021.5
20260509114557 46 311 2.0 10.0 0.00 0.00 0.00 96 1021.5
20260509113042 47 327 1.0 7.0 0.00 0.00 0.00 96 1021.5
20260509111539 47 23 1.0 7.0 0.00 0.00 0.00 96 1021.4
20260509110039 47 321 0.0 7.0 0.00 0.00 0.00 96 1021.4
20260509104538 47 13 0.0 2.0 0.00 0.00 0.00 96 1021.5
20260509103037 48 5 0.0 2.0 0.00 0.00 0.00 96 1021.6
20260509101538 49 11 0.0 0.0 0.00 0.00 0.00 96 1021.4
20260509100035 48 315 0.0 0.0 0.00 0.00 0.00 96 1021.5
20260509094544 48 314 0.0 0.0 0.00 0.00 0.00 96 1021.4
20260509093032 48 308 0.0 0.0 0.00 0.00 0.00 96 1021.2
20260509091533 49 10 0.0 0.0 0.00 0.00 0.00 96 1021.3
20260509090053 48 333 0.0 0.0 0.00 0.00 0.00 96 1021.4
20260509084531 48 332 0.0 0.0 0.00 0.00 0.00 96 1021.4
20260509083044 48 4 0.0 0.0 0.00 0.00 0.00 96 1021.3
20260509081529 48 327 0.0 0.0 0.00 0.00 0.00 96 1021.1
20260509080033 48 6 0.0 0.0 0.00 0.00 0.00 96 1021.0
20260509074533 48 26 0.0 1.0 0.00 0.00 0.00 96 1021.0
20260509073025 48 10 0.0 1.0 0.00 0.00 0.00 96 1021.1
20260509071525 48 352 0.0 0.0 0.00 0.00 0.00 96 1021.0
20260509070032 49 6 0.0 0.0 0.00 0.00 0.00 96 1020.7
20260509064521 49 305 0.0 0.0 0.00 0.00 0.00 96 1020.8
20260509063019 49 305 0.0 0.0 0.00 0.00 0.00 96 1020.6
20260509061520 49 305 0.0 0.0 0.00 0.00 0.00 96 1020.6
20260509060017 48 305 0.0 0.0 0.00 0.00 0.00 96 1020.4
20260509054515 48 305 0.0 0.0 0.00 0.00 0.00 96 1020.1
20260509053022 48 305 0.0 0.0 0.00 0.00 0.00 96 1019.9
20260509051514 48 305 0.0 0.0 0.00 0.00 0.00 96 1019.7
20260509050034 48 304 0.0 1.0 0.00 0.00 0.00 96 1019.6
20260509044513 48 357 0.0 0.0 0.00 0.00 0.00 96 1019.4
20260509043021 47 345 0.0 0.0 0.00 0.00 0.00 96 1019.4
20260509041510 47 345 0.0 0.0 0.00 0.00 0.00 96 1019.4
20260509040008 48 345 0.0 0.0 0.00 0.00 0.00 96 1019.5
20260509034506 48 345 0.0 0.0 0.00 0.00 0.00 96 1019.5